(109289) = 1995 MD3 = 2004 CT17 = 2001 QB123

Discovered at Socorro on 2001-08-19 by LINEAR.

Orbit

Orbit type: Main Belt

Note: WebGL enabled browser required.

epoch2023-09-13.0
epoch JD2460200.5
perihelion date2021-03-16.96270
perihelion JD2459290.46270
argument of perihelion (°)141.12445
ascending node (°)119.60257
inclination (°)10.02537
eccentricity0.0536577
perihelion distance (AU)2.8067058
Tisserand w.r.t. Jupiter3.2
ΔV w.r.t. Earth (km/sec)10.9
semimajor axis (AU)2.9658464
mean anomaly (°)175.60628
mean daily motion (°/day)0.19296600
aphelion distance (AU)3.125
period (years)5.11
P-vector [x]-0.15280578
P-vector [y]-0.94461024
P-vector [z]-0.29045119
Q-vector [x]0.97659618
Q-vector [y]-0.09931972
Q-vector [z]-0.19077603
absolute magnitude15.36
phase slope0.15
uncertainty0
referenceMPEC 2024-A124
observations used583
oppositions20
arc length (days)10426
first opposition used1995
last opposition used2024
residual rms (arc-secs)0.74
perturbers coarse indicatorM-v
perturbers precise indicator003Ek
first observation date used1995-06-25.0
last observation date used2024-01-10.0
computer nameMPCLINUX
JD of orbit computation2456731.432674
perihelion JD uncertainty (days)3.9920E-04
argument of perihelion uncertainty (°)7.5977E-05
ascending node uncertainty (°)2.7305E-05
inclination uncertainty (°)6.0796E-06
eccentricity uncertainty 5.3123E-08
perihelion distance uncertainty (AU)1.5526E-07
Minimum Orbit Intersection Distances (in AU)
for orbit epoch: 2460200.5, reference: E2024-AC4
Mercury2.34866
Venus2.0861
Earth1.79763
Mars1.30425
Jupiter1.97941
Saturn5.94108
Uranus15.4655
Neptune26.7939

Observations

604 total observations over interval: 1995 06 25.21206 – 2024 01 10.270672
These data are available for download (format description).

Date (UT) J2000 RA J2000 Dec Magn Location Ref
1995 06 25.21206 15 43 28.95 -07 59 47.0 20.1 V 691 – Steward Observatory, Kitt Peak-Spacewatch MPC 43093
1995 06 25.23321 15 43 28.33 -07 59 51.5 20.1 V 691 – Steward Observatory, Kitt Peak-Spacewatch MPC 43093
1995 06 25.25442 15 43 27.74 -07 59 56.5 19.6 V 691 – Steward Observatory, Kitt Peak-Spacewatch MPC 43093
1995 07 01.27150 15 41 12.81 -08 22 24.7   691 – Steward Observatory, Kitt Peak-Spacewatch MPC 25505
1995 07 01.29265 15 41 12.42 -08 22 30.1   691 – Steward Observatory, Kitt Peak-Spacewatch MPC 25505
1995 07 01.31392 15 41 12.00 -08 22 35.6 20.6 V 691 – Steward Observatory, Kitt Peak-Spacewatch MPC 25505
2000 05 26.27637 15 15 45.75 -03 32 10.5 18.7 R 699 – Lowell Observatory-LONEOS MPS 100857
2000 05 26.30012 15 15 44.64 -03 32 10.5   699 – Lowell Observatory-LONEOS MPS 100857
2000 05 26.32380 15 15 43.58 -03 32 10.7   699 – Lowell Observatory-LONEOS MPS 100857
2000 05 26.34752 15 15 42.49 -03 32 10.0   699 – Lowell Observatory-LONEOS MPS 100857
2001 08 19.27448 22 15 38.10 -18 35 28.3 18.9   704 – Lincoln Laboratory ETS, New Mexico MPS 33666
2001 08 19.28714 22 15 37.46 -18 35 32.7 19.6   704 – Lincoln Laboratory ETS, New Mexico MPS 33666
2001 08 19.31266 22 15 36.30 -18 35 44.2 19.2   704 – Lincoln Laboratory ETS, New Mexico MPS 33666
2001 08 19.32532 22 15 35.71 -18 35 49.4 19.4   704 – Lincoln Laboratory ETS, New Mexico MPS 33666
2001 08 24.48723 22 11 40.96 -19 12 01.4 20.6   608 – Haleakala-AMOS MPS 34718
2001 08 24.49806 22 11 40.43 -19 12 06.0 20.8   608 – Haleakala-AMOS MPS 34718
2001 08 24.50921 22 11 39.91 -19 12 10.0 20.4   608 – Haleakala-AMOS MPS 34718
2001 08 25.25552 22 11 06.09 -19 17 12.6 19.6   704 – Lincoln Laboratory ETS, New Mexico MPS 33666
2001 08 25.27227 22 11 05.28 -19 17 19.3 19.5   704 – Lincoln Laboratory ETS, New Mexico MPS 33666
2001 08 25.30231 22 11 03.78 -19 17 30.9 19.5   704 – Lincoln Laboratory ETS, New Mexico MPS 33666
2004 01 17.26903 09 02 50.53 +18 49 43.7 19.6   644 – Palomar Mountain/NEAT MPS 109811
2004 01 17.30209 09 02 49.00 +18 49 55.8 19.7   644 – Palomar Mountain/NEAT MPS 109811
2004 01 17.34696 09 02 46.97 +18 50 13.0 19.6   644 – Palomar Mountain/NEAT MPS 109811
2004 01 22.30773 08 58 57.32 +19 21 27.0 19.5   704 – Lincoln Laboratory ETS, New Mexico MPS 109811
2004 01 22.32074 08 58 56.76 +19 21 32.7 19.6   704 – Lincoln Laboratory ETS, New Mexico MPS 109811
2004 01 22.33349 08 58 56.07 +19 21 37.7 19.8   704 – Lincoln Laboratory ETS, New Mexico MPS 109811
2004 01 22.34652 08 58 55.43 +19 21 41.6 19.7   704 – Lincoln Laboratory ETS, New Mexico MPS 109811
2004 01 30.27945 08 52 21.93 +20 12 01.1 19.1   704 – Lincoln Laboratory ETS, New Mexico MPS 98949
2004 01 30.29207 08 52 21.22 +20 12 06.6 19.8   704 – Lincoln Laboratory ETS, New Mexico MPS 98949
2004 01 30.30472 08 52 20.52 +20 12 09.7 19.5   704 – Lincoln Laboratory ETS, New Mexico MPS 98949
2004 01 30.31726 08 52 19.92 +20 12 15.5 19.7   704 – Lincoln Laboratory ETS, New Mexico MPS 98949
2004 01 30.32963 08 52 19.28 +20 12 19.2 19.7   704 – Lincoln Laboratory ETS, New Mexico MPS 98949
2004 02 10.29116 08 43 08.62 +21 18 00.2 19.0 V 703 – Catalina Sky Survey MPS 98949
2004 02 10.30484 08 43 08.05 +21 18 05.1 20.4 V 703 – Catalina Sky Survey MPS 98949
2004 02 10.31853 08 43 07.35 +21 18 10.2 19.6 V 703 – Catalina Sky Survey MPS 98949
2004 02 10.33226 08 43 06.59 +21 18 14.0 20.1 V 703 – Catalina Sky Survey MPS 98949
2004 02 13.19458 08 40 49.82 +21 33 58.2 20.2 V 291 – LPL/Spacewatch II MPS 98949
2004 02 13.21602 08 40 48.81 +21 34 05.2 19.8 V 291 – LPL/Spacewatch II MPS 98949
2004 02 13.23761 08 40 47.79 +21 34 12.1 20.3 V 291 – LPL/Spacewatch II MPS 98949
2004 02 14.21090 08 40 02.33 +21 39 23.1 20.2 V 691 – Steward Observatory, Kitt Peak-Spacewatch MPS 98949
2004 02 14.23879 08 40 01.02 +21 39 32.1 20.0 V 691 – Steward Observatory, Kitt Peak-Spacewatch MPS 98949
2004 02 14.26631 08 39 59.68 +21 39 40.7 20.6 V 691 – Steward Observatory, Kitt Peak-Spacewatch MPS 98949
2004 02 18.31348 08 36 58.73 +22 00 12.5 20.7   608 – Haleakala-AMOS MPS 98949
2004 02 18.32427 08 36 58.26 +22 00 16.1 20.8   608 – Haleakala-AMOS MPS 98949
2004 02 18.33507 08 36 57.77 +22 00 19.4 20.7   608 – Haleakala-AMOS MPS 98949
2004 02 23.21896 08 33 39.18 +22 22 46.7 19.5   704 – Lincoln Laboratory ETS, New Mexico MPS 100156
2004 02 23.23051 08 33 38.73 +22 22 49.6 19.8   704 – Lincoln Laboratory ETS, New Mexico MPS 100156
2004 02 23.24191 08 33 38.29 +22 22 52.5 20.1   704 – Lincoln Laboratory ETS, New Mexico MPS 100156
2004 02 23.25330 08 33 37.84 +22 22 55.0 20.0   704 – Lincoln Laboratory ETS, New Mexico MPS 100156
2004 02 23.26469 08 33 37.36 +22 22 58.0 20.6   704 – Lincoln Laboratory ETS, New Mexico MPS 100156
2005 04 12.35666 15 02 01.38 -01 35 03.5 19.2 R 699 – Lowell Observatory-LONEOS MPS 131595
2005 04 12.37128 15 02 00.70 -01 34 59.7   699 – Lowell Observatory-LONEOS MPS 131595
2005 04 12.38589 15 02 00.25 -01 34 54.1   699 – Lowell Observatory-LONEOS MPS 131595
2005 04 12.40048 15 01 59.75 -01 34 49.0   699 – Lowell Observatory-LONEOS MPS 131595
2005 05 11.28635 14 40 28.10 +00 09 55.9 18.9 R 699 – Lowell Observatory-LONEOS MPS 133900
2005 05 11.30826 14 40 26.96 +00 09 58.4   699 – Lowell Observatory-LONEOS MPS 133900
2005 05 11.31202 14 40 26.76 +00 09 58.6 18.6 R 703 – Catalina Sky Survey MPS 133900
2005 05 11.31962 14 40 26.39 +00 09 58.0 18.9 R 703 – Catalina Sky Survey MPS 133900
2005 05 11.32719 14 40 26.03 +00 09 59.8 18.7 R 703 – Catalina Sky Survey MPS 133900
2005 05 11.33012 14 40 25.95 +00 10 00.6   699 – Lowell Observatory-LONEOS MPS 133900
2005 05 11.33483 14 40 25.62 +00 10 00.3 19.9 R 703 – Catalina Sky Survey MPS 133900
2005 05 11.35205 14 40 24.84 +00 10 02.0   699 – Lowell Observatory-LONEOS MPS 133900
2005 06 07.25704 14 24 17.53 -00 05 00.8 20.8 V 703 – Catalina Sky Survey MPS 135906
2005 06 07.26597 14 24 17.38 -00 05 04.7 19.2 V 703 – Catalina Sky Survey MPS 135906
2005 06 07.27492 14 24 17.17 -00 05 03.4 20.8 V 703 – Catalina Sky Survey MPS 135906
2005 06 07.28394 14 24 16.92 -00 05 07.0 20.3 V 703 – Catalina Sky Survey MPS 135906
2006 07 20.34264 21 44 52.30 -17 25 32.2 19.8 R 644 – Palomar Mountain/NEAT MPS 175387
2006 07 20.36299 21 44 51.63 -17 25 40.3 19.5 R 644 – Palomar Mountain/NEAT MPS 175387
2006 07 20.38327 21 44 50.96 -17 25 48.4 19.2 R 644 – Palomar Mountain/NEAT MPS 175387
2006 07 21.27754 21 44 21.22 -17 31 48.0 18.7   704 – Lincoln Laboratory ETS, New Mexico MPS 175057
2006 07 21.28852 21 44 20.81 -17 31 53.1 19.2   704 – Lincoln Laboratory ETS, New Mexico MPS 175057
2006 07 21.31045 21 44 19.96 -17 32 02.1 19.0   704 – Lincoln Laboratory ETS, New Mexico MPS 175057
2006 08 14.28080 21 27 19.15 -20 19 29.8 19.0 R 644 – Palomar Mountain/NEAT MPS 178098
2006 08 14.30163 21 27 18.15 -20 19 38.4 18.8 R 644 – Palomar Mountain/NEAT MPS 178098
2006 08 14.32250 21 27 17.15 -20 19 46.7 19.7 R 644 – Palomar Mountain/NEAT MPS 178098
2006 08 20.25946 21 22 42.98 -20 57 43.7 19.0 R 644 – Palomar Mountain/NEAT MPS 176733
2006 08 20.27981 21 22 42.03 -20 57 51.3 19.0 R 644 – Palomar Mountain/NEAT MPS 176733
2006 08 20.30020 21 22 41.09 -20 57 58.8 18.9 R 644 – Palomar Mountain/NEAT MPS 176733
2006 08 24.21709 21 19 47.25 -21 21 03.3 19.5 R 644 – Palomar Mountain/NEAT MPS 176733
2006 08 24.23760 21 19 46.34 -21 21 10.5 19.0 R 644 – Palomar Mountain/NEAT MPS 176733
2006 08 24.25933 21 19 45.34 -21 21 18.0 19.1 R 644 – Palomar Mountain/NEAT MPS 176733
2007 10 10.33729 03 21 58.24 +04 10 08.7 20.0 V 703 – Catalina Sky Survey MPS 275439
2007 10 10.34882 03 21 57.99 +04 10 07.3 20.3 V 703 – Catalina Sky Survey MPS 275439
2007 10 10.36037 03 21 57.63 +04 10 01.6 19.7 V 703 – Catalina Sky Survey MPS 275439
2007 10 10.37193 03 21 57.42 +04 09 59.2 20.3 V 703 – Catalina Sky Survey MPS 275439
2007 10 19.29769 03 16 50.03 +03 31 25.5 19.9   704 – Lincoln Laboratory ETS, New Mexico MPS 223191
2007 10 19.30836 03 16 49.58 +03 31 23.3 20.2   704 – Lincoln Laboratory ETS, New Mexico MPS 223191
2007 10 19.31903 03 16 49.10 +03 31 21.0 20.1   704 – Lincoln Laboratory ETS, New Mexico MPS 223191
2007 10 19.32969 03 16 48.75 +03 31 18.9 20.3   704 – Lincoln Laboratory ETS, New Mexico MPS 223191
